User: anonymous
Location: Gipe Farm
(40.9466°N, 95.5370°W)
Time: 09:36:43
(UTC-05:00)
Language:

Cosmos 1842 - Orbit

View from above orbital plane
View from above orbital plane
View from above satellite
View from above satellite

Ground track
Ground track

The orbit data is extracted from the following two-line orbital elements,

1 17911U 87038A   14204.98312914  .00001496  00000-0  99241-4 0  5279
2 17911 082.4931 148.0813 0011541 252.7165 107.2800 15.06516334482009
Epoch (UTC): 23 July 2014 23:35:42
Eccentricity: 0.0011541
inclination: 82.4931°
perigee height: 539 km
apogee height: 555 km
right ascension of ascending node: 148.0813°
argument of perigee: 252.7165°
revolutions per day: 15.06516334
mean anomaly at epoch: 107.2800°
orbit number at epoch: 48200

The dashed part of the orbit path shows where the satellite is in the earth's shadow,  

DLR